Showing default

TELSTAR 19V, 43562

Orbit data source: Space-Track

TELSTAR 19V, 43562 is a payload satellite owned by Telesat/Skynet (CA) in GEO that was launched on Sun, 22 Jul 2018 UTC via an FALCON 9 launch vehicle from the Air Force Eastern Test Range (AFETR). Payload-class satellites include a variety of spacecraft equipped with specific instruments for various scientific and technological missions. These include communications satellites like Starlink; space stations such as the ISS; scientific satellites like the Hubble; Earth observation satellites from companies like Planet Labs, Umbra, and HawkEye 360; GPS; miniature CubeSats for education and research; and military/defense satellites.

Loading next visibility...
Identifier
43562, 2018-059A
Orbit
GEO
Country
Flag of CACA
Related business
Manufacturer
Maxar SSL
Mission
Operational Commercial Communications
Bus & Motor
LS-1300, R-4D
Mass
7,075 kg wet, ~2,000 kg dry
Launch date (UTC)
2018-07-22 (7 years ago)
Launch vehicle
FALCON 9
Launch site
Air Force Eastern Test Range (AFETR)
Object type
Payload
Rocket body
Debris
Shape & HBR
Box + 2 Pan, 13.1 m
Radar Cross Section
120.644 m², Large (>1 m²)

Expand to show TLE details & history
Last TLE update: 10 hours ago

TLE from 10 hours ago
0 TELSTAR 19V
1 43562U 18059A   25260.21354488 -.00000300  00000-0  00000-0 0  9997
2 43562   0.0193 185.8622 0002863 335.4079 208.9962  1.00270310 26409
Epoch: 2025-09-17T05:07Z
TLE epoch observation values (Epoch: 2025-09-17T05:07:30.277Z)
Latitude
-0.01016°
Longitude
-63.01693°
Altitude
35,797.112 km
Speed
3.074 km/s
True Right ascension
00h 41m 00s
True Declination
0° 00' 37"
Sunlit
Object was in daylight at epoch
Visualization orbit readout
Latitude
Unknown
Longitude
Unknown
Altitude
Unknown
Speed
Unknown
Apparent Right ascension
Unknown
Apparent Declination
Unknown
Sunlit
N/A
Visualization observer readout
Local Sidereal Time
07:46:05
Azimuth
Unknown
Elevation
Unknown
Doppler factor
Unknown
Orbital elements
Apogee altitude
35,800.151 km
Perigee altitude
35,776.007 km
Semi-major axis
42,166.216 km
Eccentricity
0.00029
Inclination
0.0193°
RAAN
185.8622°
Arg. of periapsis
335.4079°
True anomaly
208.9803°
Mean anomaly
208.9962°
Eccentric anomaly
208.98825°
Mean motion
0.25067 °/min
Orbital period
1,436.17 mins
BSTAR
0
Loading maneuver chart data...
Computing Atmospheric mass density...
Loading historical data...
Loading historical data...
Loading historical data...
Loading historical data...
Loading historical data...
Loading historical data...
Loading historical data...
Other satellites on launch #59 in the year 2018 (2018-07-22 UTC)

Documentation

Showing up to 5 results
|